| time (UTC) | temp C | wind direction | speed KPH | gust KPH | rain 1hr cm | rain 24hr cm | rain mn cm | humidity % | barometer mb |
| 20260504180035 | 26 | 193 | 8.0 | 14.5 | 0.00 | 0.20 | 0.20 | 44 | 1002.7 |
| 20260504175515 | 26 | 110 | 3.2 | 11.3 | 0.00 | 0.20 | 0.20 | 45 | 1002.7 |
| 20260504175019 | 26 | 136 | 3.2 | 14.5 | 0.00 | 0.20 | 0.20 | 48 | 1002.7 |
| 20260504174530 | 26 | 66 | 6.4 | 14.5 | 0.00 | 0.20 | 0.20 | 46 | 1003.0 |
| 20260504174016 | 26 | 155 | 3.2 | 16.1 | 0.00 | 0.20 | 0.20 | 46 | 1003.0 |
| 20260504173515 | 26 | 258 | 4.8 | 16.1 | 0.00 | 0.20 | 0.20 | 49 | 1003.0 |
| 20260504173033 | 25 | 188 | 3.2 | 17.7 | 0.00 | 0.20 | 0.20 | 48 | 1003.0 |
| 20260504172515 | 25 | 181 | 4.8 | 17.7 | 0.00 | 0.20 | 0.20 | 48 | 1003.2 |
| 20260504172015 | 25 | 220 | 4.8 | 16.1 | 0.00 | 0.20 | 0.20 | 45 | 1003.1 |
| 20260504171530 | 25 | 295 | 3.2 | 12.9 | 0.00 | 0.20 | 0.20 | 48 | 1003.1 |
| 20260504171014 | 25 | 212 | 3.2 | 12.9 | 0.00 | 0.20 | 0.20 | 49 | 1003.2 |
| 20260504170516 | 25 | 236 | 3.2 | 12.9 | 0.00 | 0.20 | 0.20 | 50 | 1003.3 |
| 20260504151015 | 17 | 101 | 1.6 | 8.0 | 0.03 | 0.20 | 0.20 | 78 | 1004.4 |
| 20260504150521 | 17 | 169 | 1.6 | 4.8 | 0.03 | 0.20 | 0.20 | 80 | 1004.6 |
| 20260504141020 | 15 | 0 | 0.0 | 3.2 | 0.00 | 0.18 | 0.18 | 84 | 1004.7 |
| 20260504140517 | 15 | 150 | 0.0 | 3.2 | 0.00 | 0.18 | 0.18 | 86 | 1004.8 |
| 20260504130516 | 13 | 0 | 0.0 | 1.6 | 0.00 | 0.18 | 0.18 | 88 | 1004.7 |
| 20260504110515 | 11 | 105 | 0.0 | 1.6 | 0.00 | 0.18 | 0.18 | 90 | 1005.1 |
| 20260504100515 | 11 | 0 | 0.0 | 1.6 | 0.00 | 0.18 | 0.18 | 89 | 1006.2 |
| 20260504081535 | 12 | 105 | 1.6 | 3.2 | 0.15 | 0.15 | 0.15 | 82 | 1006.6 |
| 20260504081021 | 12 | 0 | 1.6 | 3.2 | 0.03 | 0.03 | 0.03 | 79 | 1007.3 |
| 20260504080516 | 12 | 0 | 0.0 | 3.2 | 0.00 | 0.00 | 0.00 | 78 | 1006.7 |
| 20260504050518 | 13 | 0 | 0.0 | 0.0 | 0.00 | 0.00 | 0.00 | 76 | 1007.7 |
| 20260504045515 | 13 | 0 | 0.0 | 0.0 | 0.00 | 0.00 | 0.00 | 76 | 1007.7 |
| 20260504045017 | 13 | 0 | 0.0 | 0.0 | 0.00 | 0.00 | 0.00 | 75 | 1007.7 |
| 20260504044537 | 13 | 0 | 0.0 | 0.0 | 0.00 | 0.00 | 0.00 | 74 | 1007.8 |
| 20260504044016 | 13 | 0 | 0.0 | 0.0 | 0.00 | 0.00 | 0.00 | 73 | 1008.0 |
| 20260504043526 | 14 | 0 | 0.0 | 0.0 | 0.00 | 0.00 | 0.00 | 72 | 1008.1 |
| 20260504043037 | 14 | 0 | 0.0 | 0.0 | 0.00 | 0.00 | 0.00 | 73 | 1008.2 |
| 20260504042517 | 14 | 0 | 0.0 | 0.0 | 0.00 | 0.00 | 0.00 | 72 | 1008.0 |
| 20260504042017 | 14 | 0 | 0.0 | 0.0 | 0.00 | 0.00 | 0.00 | 73 | 1008.1 |
| 20260504041533 | 15 | 0 | 0.0 | 0.0 | 0.00 | 0.00 | 0.00 | 73 | 1008.2 |
| 20260504041015 | 15 | 0 | 0.0 | 0.0 | 0.00 | 0.00 | 0.00 | 73 | 1008.2 |
| 20260504040517 | 15 | 0 | 0.0 | 0.0 | 0.00 | 0.00 | 0.00 | 72 | 1008.3 |
| 20260504040040 | 15 | 0 | 0.0 | 0.0 | 0.00 | 0.00 | 0.00 | 72 | 1008.3 |
| 20260504035521 | 15 | 0 | 0.0 | 0.0 | 0.00 | 0.00 | 0.00 | 72 | 1008.3 |
| 20260504035018 | 15 | 0 | 0.0 | 0.0 | 0.00 | 0.00 | 0.00 | 71 | 1008.4 |
| 20260504034532 | 15 | 0 | 0.0 | 0.0 | 0.00 | 0.00 | 0.00 | 72 | 1008.4 |
| 20260504034016 | 15 | 0 | 0.0 | 0.0 | 0.00 | 0.00 | 0.00 | 71 | 1008.5 |
| 20260504033519 | 15 | 0 | 0.0 | 0.0 | 0.00 | 0.00 | 0.00 | 71 | 1008.6 |
| 20260504033049 | 15 | 0 | 0.0 | 0.0 | 0.00 | 0.00 | 0.00 | 70 | 1008.8 |
| 20260504032519 | 15 | 0 | 0.0 | 0.0 | 0.00 | 0.00 | 0.00 | 70 | 1008.8 |
| 20260504032016 | 15 | 0 | 0.0 | 0.0 | 0.00 | 0.00 | 0.00 | 70 | 1008.6 |
| 20260504031533 | 15 | 0 | 0.0 | 0.0 | 0.00 | 0.00 | 0.00 | 70 | 1008.5 |
| 20260504031019 | 16 | 0 | 0.0 | 0.0 | 0.00 | 0.00 | 0.00 | 69 | 1008.6 |
| 20260504030518 | 16 | 0 | 0.0 | 1.6 | 0.00 | 0.00 | 0.00 | 68 | 1008.8 |
| 20260504030032 | 15 | 0 | 0.0 | 1.6 | 0.00 | 0.00 | 0.00 | 68 | 1008.8 |
| 20260504025520 | 15 | 0 | 0.0 | 1.6 | 0.00 | 0.00 | 0.00 | 69 | 1008.6 |
| 20260504025018 | 16 | 0 | 0.0 | 1.6 | 0.00 | 0.00 | 0.00 | 70 | 1008.7 |
| 20260504024543 | 16 | 134 | 0.0 | 3.2 | 0.00 | 0.00 | 0.00 | 70 | 1008.7 |
| 20260504024018 | 16 | 0 | 0.0 | 3.2 | 0.00 | 0.00 | 0.00 | 69 | 1008.5 |
| 20260504023518 | 15 | 117 | 0.0 | 1.6 | 0.00 | 0.00 | 0.00 | 70 | 1008.6 |
| 20260504023037 | 16 | 0 | 0.0 | 0.0 | 0.00 | 0.00 | 0.00 | 70 | 1008.7 |
| 20260504022521 | 16 | 0 | 0.0 | 0.0 | 0.00 | 0.00 | 0.00 | 70 | 1008.8 |
| 20260504022017 | 16 | 0 | 0.0 | 0.0 | 0.00 | 0.00 | 0.00 | 70 | 1008.8 |
| 20260504021535 | 16 | 0 | 0.0 | 0.0 | 0.00 | 0.00 | 0.00 | 69 | 1008.8 |
| 20260504021014 | 16 | 0 | 0.0 | 0.0 | 0.00 | 0.00 | 0.00 | 68 | 1008.7 |
| 20260504020517 | 16 | 0 | 0.0 | 0.0 | 0.00 | 0.00 | 0.00 | 68 | 1008.5 |
| 20260504020033 | 16 | 0 | 0.0 | 1.6 | 0.00 | 0.00 | 0.00 | 66 | 1008.6 |
| 20260504015520 | 16 | 0 | 0.0 | 1.6 | 0.00 | 0.00 | 0.00 | 66 | 1008.5 |
| 20260504015021 | 16 | 112 | 0.0 | 3.2 | 0.00 | 0.00 | 0.00 | 66 | 1008.6 |
| 20260504014533 | 16 | 112 | 1.6 | 3.2 | 0.00 | 0.00 | 0.00 | 66 | 1008.6 |
| 20260504014022 | 16 | 129 | 0.0 | 1.6 | 0.00 | 0.00 | 0.00 | 66 | 1008.7 |
| 20260504013521 | 16 | 0 | 0.0 | 1.6 | 0.00 | 0.00 | 0.00 | 65 | 1008.6 |
| 20260504013037 | 17 | 127 | 0.0 | 1.6 | 0.00 | 0.00 | 0.00 | 66 | 1008.7 |
| 20260504012518 | 17 | 127 | 0.0 | 1.6 | 0.00 | 0.00 | 0.00 | 64 | 1008.7 |
| 20260504012023 | 17 | 128 | 0.0 | 1.6 | 0.00 | 0.00 | 0.00 | 64 | 1008.5 |
| 20260504011533 | 17 | 0 | 0.0 | 1.6 | 0.00 | 0.00 | 0.00 | 64 | 1008.7 |
| 20260504011017 | 17 | 0 | 0.0 | 1.6 | 0.00 | 0.00 | 0.00 | 63 | 1008.6 |
| 20260504010518 | 17 | 128 | 0.0 | 3.2 | 0.00 | 0.00 | 0.00 | 62 | 1008.5 |
| 20260504010036 | 18 | 128 | 1.6 | 3.2 | 0.00 | 0.00 | 0.00 | 62 | 1008.0 |
| 20260504005518 | 18 | 0 | 0.0 | 0.0 | 0.00 | 0.00 | 0.00 | 60 | 1008.6 |
| 20260504005015 | 18 | 0 | 0.0 | 1.6 | 0.00 | 0.00 | 0.00 | 60 | 1008.5 |
| 20260504004534 | 18 | 0 | 0.0 | 1.6 | 0.00 | 0.00 | 0.00 | 60 | 1008.3 |
| 20260504004018 | 18 | 301 | 0.0 | 0.0 | 0.00 | 0.00 | 0.00 | 60 | 1008.4 |
| 20260504003518 | 19 | 0 | 0.0 | 1.6 | 0.00 | 0.00 | 0.00 | 58 | 1008.4 |
| 20260504003041 | 19 | 0 | 0.0 | 1.6 | 0.00 | 0.00 | 0.00 | 57 | 1008.1 |
| 20260504002518 | 19 | 301 | 0.0 | 1.6 | 0.00 | 0.00 | 0.00 | 56 | 1008.0 |
| 20260504002018 | 20 | 302 | 0.0 | 1.6 | 0.00 | 0.00 | 0.00 | 57 | 1008.1 |
| 20260504001532 | 20 | 0 | 0.0 | 3.2 | 0.00 | 0.00 | 0.00 | 52 | 1008.5 |
| 20260504001021 | 20 | 300 | 1.6 | 3.2 | 0.00 | 0.00 | 0.00 | 55 | 1008.4 |
| 20260504000518 | 20 | 139 | 0.0 | 1.6 | 0.00 | 0.00 | 0.00 | 54 | 1008.5 |
| 20260504000042 | 20 | 139 | 0.0 | 1.6 | 0.00 | 0.00 | 0.00 | 55 | 1008.1 |
| 20260503235518 | 20 | 242 | 0.0 | 1.6 | 0.00 | 0.00 | 0.00 | 53 | 1008.3 |
| 20260503235018 | 21 | 231 | 0.0 | 3.2 | 0.00 | 0.00 | 0.00 | 54 | 1008.1 |
| 20260503234533 | 21 | 231 | 0.0 | 3.2 | 0.00 | 0.00 | 0.00 | 52 | 1007.9 |
| 20260503234018 | 21 | 96 | 1.6 | 9.7 | 0.00 | 0.00 | 0.00 | 51 | 1007.6 |
| 20260503233517 | 21 | 134 | 1.6 | 9.7 | 0.00 | 0.00 | 0.00 | 47 | 1007.7 |
| 20260503233038 | 21 | 258 | 0.0 | 9.7 | 0.00 | 0.00 | 0.00 | 47 | 1008.3 |
| 20260503232516 | 21 | 307 | 1.6 | 6.4 | 0.00 | 0.00 | 0.00 | 49 | 1008.5 |
| 20260503232015 | 21 | 286 | 1.6 | 4.8 | 0.00 | 0.00 | 0.00 | 49 | 1008.3 |
| 20260503231537 | 21 | 240 | 0.0 | 8.0 | 0.00 | 0.00 | 0.00 | 46 | 1008.2 |
| 20260503231022 | 21 | 243 | 1.6 | 8.0 | 0.00 | 0.00 | 0.00 | 47 | 1008.3 |
| 20260503230518 | 22 | 235 | 3.2 | 9.7 | 0.00 | 0.00 | 0.00 | 46 | 1008.5 |
| 20260503230035 | 22 | 207 | 3.2 | 9.7 | 0.00 | 0.00 | 0.00 | 47 | 1009.0 |
| 20260503225518 | 22 | 357 | 4.8 | 9.7 | 0.00 | 0.00 | 0.00 | 47 | 1009.2 |
| 20260503225018 | 22 | 314 | 3.2 | 9.7 | 0.00 | 0.00 | 0.00 | 49 | 1008.9 |
| 20260503224536 | 22 | 319 | 3.2 | 9.7 | 0.00 | 0.00 | 0.00 | 47 | 1008.4 |
| 20260503224018 | 22 | 245 | 3.2 | 11.3 | 0.00 | 0.00 | 0.00 | 46 | 1008.7 |
| 20260503223517 | 22 | 274 | 4.8 | 11.3 | 0.00 | 0.00 | 0.00 | 45 | 1008.5 |
| 20260503223033 | 22 | 288 | 4.8 | 11.3 | 0.00 | 0.00 | 0.00 | 46 | 1008.4 |
| 20260503222516 | 22 | 41 | 3.2 | 11.3 | 0.00 | 0.00 | 0.00 | 46 | 1008.2 |
| 20260503222016 | 22 | 261 | 4.8 | 11.3 | 0.00 | 0.00 | 0.00 | 44 | 1008.1 |
| 20260503221535 | 22 | 244 | 1.6 | 8.0 | 0.00 | 0.00 | 0.00 | 45 | 1008.0 |
| 20260503221016 | 22 | 238 | 3.2 | 8.0 | 0.00 | 0.00 | 0.00 | 45 | 1008.0 |
| 20260503220518 | 22 | 273 | 1.6 | 6.4 | 0.00 | 0.00 | 0.00 | 48 | 1008.4 |
| 20260503220037 | 22 | 236 | 1.6 | 12.9 | 0.00 | 0.00 | 0.00 | 44 | 1008.3 |
| 20260503215515 | 22 | 252 | 1.6 | 12.9 | 0.00 | 0.00 | 0.00 | 44 | 1008.5 |
| 20260503215019 | 22 | 259 | 3.2 | 12.9 | 0.00 | 0.00 | 0.00 | 43 | 1008.5 |
| 20260503214533 | 22 | 245 | 3.2 | 14.5 | 0.00 | 0.00 | 0.00 | 43 | 1008.6 |
| 20260503214018 | 22 | 223 | 4.8 | 14.5 | 0.00 | 0.00 | 0.00 | 41 | 1008.6 |
| 20260503213518 | 22 | 210 | 3.2 | 11.3 | 0.00 | 0.00 | 0.00 | 42 | 1008.5 |
| 20260503213034 | 22 | 219 | 3.2 | 11.3 | 0.00 | 0.00 | 0.00 | 42 | 1008.4 |
| 20260503212519 | 22 | 223 | 6.4 | 9.7 | 0.00 | 0.00 | 0.00 | 40 | 1008.3 |
| 20260503212015 | 22 | 240 | 3.2 | 9.7 | 0.00 | 0.00 | 0.00 | 41 | 1008.6 |
| 20260503211533 | 22 | 244 | 3.2 | 9.7 | 0.00 | 0.00 | 0.00 | 41 | 1008.7 |
| 20260503211016 | 22 | 226 | 4.8 | 11.3 | 0.00 | 0.00 | 0.00 | 41 | 1008.8 |
| 20260503210518 | 23 | 214 | 3.2 | 11.3 | 0.00 | 0.00 | 0.00 | 42 | 1008.8 |
| 20260503210037 | 23 | 138 | 3.2 | 12.9 | 0.00 | 0.00 | 0.00 | 41 | 1008.7 |
| 20260503205518 | 22 | 195 | 3.2 | 12.9 | 0.00 | 0.00 | 0.00 | 40 | 1008.9 |
| 20260503205017 | 22 | 333 | 3.2 | 12.9 | 0.00 | 0.00 | 0.00 | 41 | 1009.0 |
| 20260503204537 | 22 | 200 | 1.6 | 8.0 | 0.00 | 0.00 | 0.00 | 40 | 1009.0 |
| 20260503204016 | 22 | 245 | 3.2 | 9.7 | 0.00 | 0.00 | 0.00 | 40 | 1009.1 |
| 20260503203521 | 22 | 177 | 1.6 | 17.7 | 0.00 | 0.00 | 0.00 | 41 | 1009.2 |
| 20260503203041 | 22 | 226 | 4.8 | 17.7 | 0.00 | 0.00 | 0.00 | 39 | 1009.2 |
| 20260503202518 | 22 | 268 | 3.2 | 11.3 | 0.00 | 0.00 | 0.00 | 41 | 1009.3 |
| 20260503202022 | 22 | 174 | 4.8 | 8.0 | 0.00 | 0.00 | 0.00 | 40 | 1009.3 |
| 20260503201533 | 22 | 253 | 1.6 | 8.0 | 0.00 | 0.00 | 0.00 | 40 | 1009.6 |
| 20260503201019 | 22 | 188 | 3.2 | 14.5 | 0.00 | 0.00 | 0.00 | 40 | 1009.5 |
| 20260503200519 | 21 | 194 | 4.8 | 14.5 | 0.00 | 0.00 | 0.00 | 40 | 1009.7 |
| 20260503200034 | 21 | 172 | 4.8 | 12.9 | 0.00 | 0.00 | 0.00 | 40 | 1009.9 |
| 20260503195518 | 21 | 240 | 4.8 | 9.7 | 0.00 | 0.00 | 0.00 | 39 | 1009.9 |
| 20260503195018 | 21 | 277 | 4.8 | 9.7 | 0.00 | 0.00 | 0.00 | 40 | 1009.9 |
| 20260503194533 | 21 | 181 | 4.8 | 17.7 | 0.00 | 0.00 | 0.00 | 41 | 1010.1 |
| 20260503194018 | 21 | 225 | 4.8 | 17.7 | 0.00 | 0.00 | 0.00 | 40 | 1010.3 |
| 20260503193521 | 20 | 228 | 4.8 | 11.3 | 0.00 | 0.00 | 0.00 | 40 | 1010.5 |
| 20260503193036 | 20 | 236 | 6.4 | 14.5 | 0.00 | 0.00 | 0.00 | 39 | 1010.3 |
| 20260503192517 | 20 | 124 | 6.4 | 14.5 | 0.00 | 0.00 | 0.00 | 39 | 1010.5 |
| 20260503192018 | 20 | 250 | 3.2 | 9.7 | 0.00 | 0.00 | 0.00 | 40 | 1010.3 |
| 20260503191532 | 20 | 59 | 3.2 | 9.7 | 0.00 | 0.00 | 0.00 | 40 | 1010.4 |
| 20260503191018 | 20 | 105 | 4.8 | 9.7 | 0.00 | 0.00 | 0.00 | 40 | 1010.7 |
| 20260503190518 | 20 | 100 | 3.2 | 11.3 | 0.00 | 0.00 | 0.00 | 40 | 1010.8 |
| 20260503190034 | 20 | 205 | 3.2 | 14.5 | 0.00 | 0.00 | 0.00 | 40 | 1010.6 |
| 20260503185517 | 20 | 231 | 6.4 | 14.5 | 0.00 | 0.00 | 0.00 | 40 | 1010.3 |
| 20260503185017 | 20 | 236 | 3.2 | 14.5 | 0.00 | 0.00 | 0.00 | 39 | 1010.2 |
| 20260503184544 | 20 | 245 | 4.8 | 14.5 | 0.00 | 0.00 | 0.00 | 39 | 1010.2 |
| 20260503184015 | 20 | 282 | 3.2 | 22.5 | 0.00 | 0.00 | 0.00 | 40 | 1010.4 |
| 20260503183518 | 20 | 220 | 4.8 | 22.5 | 0.00 | 0.00 | 0.00 | 39 | 1011.0 |
| 20260503183034 | 20 | 205 | 4.8 | 9.7 | 0.00 | 0.00 | 0.00 | 39 | 1011.1 |
| 20260503182519 | 20 | 199 | 3.2 | 14.5 | 0.00 | 0.00 | 0.00 | 39 | 1011.1 |
| 20260503182015 | 20 | 199 | 4.8 | 14.5 | 0.00 | 0.00 | 0.00 | 39 | 1011.3 |
| 20260503181534 | 20 | 229 | 4.8 | 14.5 | 0.00 | 0.00 | 0.00 | 39 | 1011.0 |
| 20260503181020 | 20 | 203 | 4.8 | 14.5 | 0.00 | 0.00 | 0.00 | 40 | 1011.3 |
| 20260503180519 | 20 | 264 | 3.2 | 12.9 | 0.00 | 0.00 | 0.00 | 38 | 1011.4 |